FW0896 Weather Reports


time (UTC)temp
F
wind
direction
speed
knots
gust
knots
rain 1hr
in
rain 24hr
in
rain mn
in
humidity
%
barometer
mb
20260906083014 69 165 1.7 3.5 0.00 0.00 0.00 95 1015.8
20260906081504 69 158 0.9 2.6 0.00 0.00 0.00 95 1015.7
20260906080004 69 172 0.9 2.6 0.00 0.00 0.00 95 1015.8
20260906074503 69 134 0.9 3.5 0.00 0.00 0.00 95 1015.8
20260906073001 69 121 2.6 6.1 0.00 0.00 0.00 95 1015.9
20260906071603 69 120 1.7 3.5 0.00 0.00 0.00 95 1016.1
20260906070100 69 117 0.9 2.6 0.00 0.00 0.00 95 1016.2
20260906064559 70 123 0.9 3.5 0.00 0.00 0.00 96 1016.4
20260906063058 69 119 0.9 2.6 0.00 0.00 0.00 96 1016.2
20260906061559 69 103 0.9 2.6 0.00 0.00 0.00 95 1016.3
20260906060056 69 109 2.6 3.5 0.00 0.00 0.00 96 1016.3
20260906054553 69 84 1.7 5.2 0.00 0.00 0.00 95 1016.3
20260906053054 70 70 1.7 7.0 0.00 0.00 0.00 95 1016.3
20260906051557 70 100 2.6 6.1 0.00 0.00 0.00 95 1016.1
20260906050047 70 86 2.6 6.1 0.00 0.00 0.00 95 1016.1
20260906044546 70 98 2.6 4.3 0.00 0.00 0.00 95 1015.8
20260906043046 71 89 3.5 7.8 0.00 0.00 0.00 95 1016.1
20260906041552 71 90 1.7 4.3 0.00 0.00 0.00 95 1016.1
20260906040045 71 93 0.9 3.5 0.00 0.00 0.00 94 1015.9
20260906034548 71 86 1.7 5.2 0.00 0.00 0.00 94 1016.1
20260906033045 71 89 1.7 3.5 0.00 0.00 0.00 94 1016.2
20260906031543 71 89 0.9 2.6 0.00 0.00 0.00 94 1016.3
20260906030043 72 88 0.9 2.6 0.00 0.00 0.00 93 1016.3
20260906024558 72 115 0.0 2.6 0.00 0.00 0.00 93 1015.9
20260906023042 72 115 0.9 2.6 0.00 0.00 0.00 92 1016.0
20260906021541 72 115 0.0 0.0 0.00 0.00 0.00 92 1015.6
20260906020046 72 115 0.0 0.0 0.00 0.00 0.00 92 1015.9
20260906014551 73 115 0.0 0.0 0.00 0.00 0.00 91 1015.6
20260906013043 73 115 0.0 0.0 0.00 0.00 0.00 91 1015.4
20260906011541 73 115 0.0 0.0 0.00 0.00 0.00 90 1015.3
20260906010037 74 115 0.0 0.0 0.00 0.00 0.00 89 1015.1
20260906004541 74 114 0.0 0.0 0.00 0.00 0.00 88 1015.0
20260906003047 75 113 0.0 0.9 0.00 0.00 0.00 88 1014.9
20260906001534 75 113 0.0 1.7 0.00 0.00 0.00 87 1014.7
20260906000033 75 110 0.0 1.7 0.00 0.00 0.00 87 1014.7
20260905234533 75 111 0.0 1.7 0.00 0.00 0.00 87 1014.6
20260905233033 75 104 1.7 4.3 0.00 0.00 0.00 87 1014.5
20260905231538 76 85 1.7 4.3 0.00 0.00 0.00 86 1014.4
20260905230032 76 86 0.0 3.5 0.00 0.00 0.00 86 1014.4
20260905224534 77 105 0.0 4.3 0.00 0.00 0.00 85 1014.5
20260905223031 77 98 1.7 5.2 0.00 0.00 0.00 84 1014.0
20260905221530 78 86 2.6 5.2 0.00 0.00 0.00 86 1013.9
20260905220030 79 97 0.9 5.2 0.00 0.00 0.00 86 1013.7
20260905214530 79 102 2.6 4.3 0.00 0.00 0.00 86 1013.7
20260905213039 79 98 1.7 4.3 0.00 0.00 0.00 85 1014.1
20260905211533 80 70 2.6 4.3 0.00 0.00 0.00 83 1014.2
20260905210027 81 65 0.0 3.5 0.00 0.00 0.00 83 1014.3
20260905204527 81 98 1.7 4.3 0.00 0.00 0.00 83 1014.5
20260905203023 80 104 0.0 6.1 0.00 0.00 0.00 86 1014.4
20260905201520 78 97 3.5 7.8 0.00 0.00 0.00 87 1013.5
20260905200018 78 98 2.6 7.0 0.00 0.00 0.00 90 1013.4
20260905194514 77 80 2.6 9.6 0.00 0.00 0.00 91 1013.3
20260905193013 76 70 4.3 10.4 0.00 0.00 0.00 91 1013.1
20260905191512 76 63 4.3 7.8 0.00 0.00 0.00 91 1013.4
20260905190012 76 82 0.9 7.8 0.00 0.00 0.00 90 1014.6
20260905184511 76 32 3.5 7.0 0.00 0.00 0.00 91 1014.3
20260905183008 75 86 3.5 7.8 0.00 0.00 0.00 92 1014.1
20260905181509 75 79 2.6 8.7 0.00 0.00 0.00 92 1014.4
20260905180007 75 74 3.5 7.8 0.00 0.00 0.00 92 1014.6
20260905174508 75 84 2.6 5.2 0.00 0.00 0.00 94 1015.2
20260905173005 74 89 2.6 5.2 0.00 0.00 0.00 95 1015.8
20260905171512 73 67 2.6 5.2 0.00 0.00 0.00 96 1015.9
20260905170005 72 63 1.7 6.1 0.00 0.00 0.00 97 1016.2
20260905164506 72 36 1.7 2.6 0.00 0.00 0.00 97 1016.6
20260905163003 72 264 0.0 1.7 0.00 0.00 0.00 97 1016.8
20260905161503 72 255 0.0 0.0 0.00 0.00 0.00 97 1016.8
20260905160005 72 253 1.7 4.3 0.00 0.00 0.00 96 1017.1
20260905154604 72 75 0.0 0.0 0.00 0.00 0.00 97 1016.3
20260905153100 71 89 0.0 0.0 0.00 0.00 0.00 97 1016.3
20260905151558 71 89 0.0 0.0 0.00 0.00 0.00 97 1016.2
20260905150059 71 89 0.0 2.6 0.00 0.00 0.00 97 1016.0
20260905144555 71 36 1.7 4.3 0.00 0.00 0.00 96 1015.6
20260905143056 71 44 0.9 3.5 0.00 0.00 0.00 97 1015.6
20260905141552 70 38 1.7 4.3 0.00 0.00 0.00 97 1015.3
20260905140051 70 32 0.9 4.3 0.00 0.00 0.00 97 1015.2
20260905134556 70 32 1.7 4.3 0.00 0.00 0.00 96 1015.0
20260905133048 70 62 0.0 0.0 0.00 0.00 0.00 96 1015.0
20260905131551 70 62 0.0 0.0 0.00 0.00 0.00 96 1014.7
20260905130045 70 62 0.0 1.7 0.00 0.00 0.00 96 1014.7
20260905123040 70 86 1.7 4.3 0.00 0.00 0.00 96 1014.1
20260905121538 70 71 0.9 2.6 0.00 0.00 0.00 96 1013.7
20260905120036 70 91 0.9 2.6 0.00 0.00 0.00 96 1013.5
20260905114543 70 99 0.0 1.7 0.00 0.00 0.00 96 1013.2
20260905113038 70 92 0.9 2.6 0.00 0.00 0.00 96 1013.2
20260905111542 70 90 0.9 2.6 0.00 0.00 0.00 96 1013.4
20260905110035 70 89 1.7 5.2 0.00 0.00 0.00 96 1013.3
20260905104533 70 99 0.9 3.5 0.00 0.00 0.00 96 1013.0
20260905103033 70 86 1.7 4.3 0.00 0.00 0.00 96 1013.1
20260905101541 70 105 2.6 4.3 0.00 0.00 0.00 96 1013.0
20260905100030 70 94 1.7 4.3 0.00 0.00 0.00 96 1013.2
20260905094529 71 87 1.7 3.5 0.00 0.00 0.00 96 1013.3
20260905093028 71 93 0.9 3.5 0.00 0.00 0.00 96 1012.9
20260905091526 71 65 1.7 2.6 0.00 0.00 0.00 96 1012.4
20260905090023 71 70 1.7 3.5 0.00 0.00 0.00 96 1012.6
20260905084522 72 70 1.7 2.6 0.00 0.00 0.00 95 1012.7